(15) Eunomia
ephemeris date magn radius delta ra dec elong phase
Today27 Jun 202611.33.124 AU3.031 AU11h42m-11°21'85.7°18.9°
Opposition9 Jun 20279.52.928 AU1.924 AU17h05m-33°11'169.7°3.6°
(15) Eunomia - 2026-06-27
astro.vanbuitenen.nl


 
-1 year
-1 month
-1 day
Now
+1 day
+1 month
+1 year

The interactive orbit chart above shows the body's path through the solar system and its position at the given date. Green and blue lines are shown perpendicular to the ecliptic plane: Green if the path is above the ecliptic plane, blue if it is below. (Left-click and drag to rotate the view; Right-click and drag to move the view; Use scroll wheel to zoom in our out.)

The orbital elements of Eunomia are:

            e (Eccentricity)                : 0.1877708
            a (Semimajor axis)              : 2.6419587
            i (Inclination)                 : 11.76139
            Ω (Longitude of ascending node) : 292.88078
            ω (Argument of perihelion)      : 98.46132
            M (Mean anomaly)                : 159.68911
            Epoch                           : 2026 Jun 09

            L (Longitude of perihelion)     : 211.52085
            B (Latitude of perihelion)      : 11.63157
            P (Orbital period in years)     : 4.29            
        

The light curve chart below shows the estimated development of the minor planet's magnitude.


The all-sky chart below shows the path of the minor planet over the same period as the light curve. The current position is marked yellow.





The following chart shows the path of the minor planet in the next few days. The field of view is optimized for (~10x50) binoculars and finderscopes.




Ephemerides:
Date       Time       RA (2000)    DEC (2000)    delta   radius  elong  phase   PA    magn
2026-06-27 00:00 UT   11 42 46.6   -11 21 00     3.031    3.124   85.7   18.9   115   11.3 
2026-06-27 14:00 UT   11 43 13.7   -11 21 54     3.039    3.124   85.3   18.9   115   11.3 
2026-06-28 00:00 UT   11 43 33.2   -11 22 34     3.045    3.124   85.0   18.9   115   11.3 
2026-06-29 00:00 UT   11 44 20.5   -11 24 15     3.059    3.125   84.2   18.9   115   11.3 
2026-06-30 00:00 UT   11 45 08.5   -11 26 01     3.073    3.125   83.5   18.9   115   11.3 
2026-07-01 00:00 UT   11 45 57.3   -11 27 55     3.087    3.126   82.7   18.8   115   11.3 
2026-07-02 00:00 UT   11 46 46.7   -11 29 54     3.101    3.126   82.0   18.8   116   11.3 
2026-07-03 00:00 UT   11 47 36.8   -11 31 60     3.115    3.126   81.3   18.7   116   11.3 
2026-07-04 00:00 UT   11 48 27.6   -11 34 12     3.129    3.127   80.5   18.7   116   11.3 
2026-07-05 00:00 UT   11 49 19.0   -11 36 29     3.143    3.127   79.8   18.7   116   11.3 
2026-07-06 00:00 UT   11 50 11.1   -11 38 53     3.156    3.127   79.1   18.6   116   11.3 
2026-07-07 00:00 UT   11 51 03.8   -11 41 23     3.170    3.128   78.4   18.6   116   11.4 
2026-07-08 00:00 UT   11 51 57.1   -11 43 59     3.184    3.128   77.6   18.5   116   11.4 
2026-07-09 00:00 UT   11 52 51.1   -11 46 40     3.198    3.128   76.9   18.5   117   11.4 
2026-07-10 00:00 UT   11 53 45.7   -11 49 28     3.211    3.129   76.2   18.4   117   11.4 
2026-07-11 00:00 UT   11 54 40.9   -11 52 21     3.225    3.129   75.5   18.3   117   11.4 
2026-07-12 00:00 UT   11 55 36.7   -11 55 19     3.238    3.129   74.8   18.3   117   11.4 
2026-07-13 00:00 UT   11 56 33.1   -11 58 23     3.252    3.130   74.1   18.2   117   11.4 
2026-07-14 00:00 UT   11 57 30.0   -12 01 33     3.265    3.130   73.4   18.1   117   11.4 
2026-07-15 00:00 UT   11 58 27.6   -12 04 48     3.279    3.130   72.7   18.1   117   11.4 
2026-07-16 00:00 UT   11 59 25.7   -12 08 08     3.292    3.131   72.0   18.0   118   11.4 
2026-07-17 00:00 UT   12 00 24.3   -12 11 34     3.305    3.131   71.3   17.9   118   11.4 
2026-07-18 00:00 UT   12 01 23.5   -12 15 05     3.319    3.131   70.6   17.8   118   11.4 
2026-07-19 00:00 UT   12 02 23.2   -12 18 41     3.332    3.131   69.9   17.7   118   11.4 
2026-07-20 00:00 UT   12 03 23.5   -12 22 22     3.345    3.132   69.2   17.7   118   11.4 
2026-07-21 00:00 UT   12 04 24.3   -12 26 08     3.358    3.132   68.5   17.6   118   11.5 
2026-07-22 00:00 UT   12 05 25.6   -12 29 59     3.371    3.132   67.8   17.5   118   11.5 
2026-07-23 00:00 UT   12 06 27.3   -12 33 55     3.384    3.132   67.2   17.4   119   11.5 
2026-07-24 00:00 UT   12 07 29.6   -12 37 55     3.397    3.133   66.5   17.3   119   11.5 
2026-07-25 00:00 UT   12 08 32.3   -12 42 00     3.409    3.133   65.8   17.2   119   11.5 
2026-07-26 00:00 UT   12 09 35.6   -12 46 10     3.422    3.133   65.1   17.1   119   11.5 
2026-07-27 00:00 UT   12 10 39.3   -12 50 24     3.435    3.133   64.4   17.0   119   11.5 


    Terminology:
            
    delta:  distance between minor planet and earth in AU
    radius: distance between minor planet and sun in AU
    magn:   magnitude (brightness) estimate    
    ra:     right ascension in hours (24h = 360deg)
    dec:    declination in degrees
    elong:  elongation in degrees (angle sun-earth-minor planet)    
    phase:  phase angle in degrees (angle sun-minor planet-earth)        
    AU:     Astronomical Unit (mean distance between earth and sun: 149597870.7 km
    

Orbital elements provided by the MPC (Minor Planet Center).
Calculations by a modified version of AAPlus, a C# implementation of the AA+ project by PJ Naughter from the algorithms presented in the book "Astronomical Algorithms" by Jean Meeus.
NGC2000 dso catalog and star labels from VizieR as provided by the Strasbourg astronomical Data Center.
Tycho2 catalog from the ESO archive.